Blakely, GA

9:49 AM EST on February 23, 2017 (GMT -0500)
Blakely

Weather History for KBIJ - February, 2013

Change the Weather History Date:

Friday, February 1, 2013

  Actual Average (KDHN) Record (KDHN)
Temperature  
Mean Temperature 46 °F -  
Max Temperature 59 °F 71 °F 82 °F (1957)
Min Temperature 32 °F 48 °F 19 °F (1951)
Degree Days  
Heating Degree Days 20    
Moisture  
Dew Point 32 °F    
Average Humidity 68    
Maximum Humidity 100    
Minimum Humidity 31    
Precipitation  
Precipitation 0.00 in - - ()
Sea Level Pressure  
Sea Level Pressure 30.33 in    
Wind  
Wind Speed 2 mph (NNW)    
Max Wind Speed 13 mph    
Max Gust Speed 18 mph    
Visibility 10 miles    
Events      
Averages and records for this station are not official NWS values.
T = Trace of Precipitation, MM = Missing Value Source: NWS Daily Summary

Daily Weather History Graph

Daily Weather History Graph

Search for Another Location

Airport or City:

Trip Planner

Search our weather history database for the weather conditions in past years. The results will help you decide how hot, cold, wet, or windy it might be!

Date:

Astronomy

Feb. 01, 2013 Rise Set
Actual Time 7:31 AM EST 6:14 PM EST
Civil Twilight 7:06 AM EST 6:40 PM EST
Nautical Twilight 6:37 AM EST 7:09 PM EST
Astronomical Twilight 6:08 AM EST 7:37 PM EST
Moon 11:53 PM EST (2/1) 10:30 AM EST (2/1)
Length of Visible Light 11h 33m
Length of Day
10h 42m
Waning Gibbous, 70% of the Moon is Illuminated
Feb 1
Waning Gibbous
Feb 3
Last Quarter
Feb 10
New
Feb 17
First Quarter
Feb 25
Full

Hourly Weather History & Observations

Time (EST) Temp. Windchill Dew Point Humidity Pressure Visibility Wind Dir Wind Speed Gust Speed Precip Events Conditions
12:15 AM 35.6 °F - 35.6 °F 100% 30.29 in 10.0 mi Calm Calm - N/A   Clear
12:35 AM 35.6 °F - 33.8 °F 93% 30.29 in 10.0 mi Calm Calm - N/A   Clear
1:15 AM 35.6 °F - 33.8 °F 93% 30.30 in 10.0 mi Calm Calm - N/A   Clear
1:55 AM 35.6 °F - 35.6 °F 100% 30.30 in 10.0 mi Calm Calm - N/A   Clear
2:15 AM 35.6 °F - 33.8 °F 93% 30.30 in 10.0 mi Calm Calm - N/A   Clear
2:35 AM 35.6 °F - 33.8 °F 93% 30.29 in 10.0 mi Calm Calm - N/A   Clear
2:55 AM 35.6 °F - 33.8 °F 93% 30.29 in 10.0 mi Calm Calm - N/A   Clear
3:15 AM 33.8 °F - 33.8 °F 100% 30.29 in 10.0 mi Calm Calm - N/A   Clear
3:35 AM 33.8 °F - 33.8 °F 100% 30.29 in 10.0 mi Calm Calm - N/A   Clear
3:55 AM 33.8 °F - 33.8 °F 100% 30.29 in 10.0 mi Calm Calm - N/A   Clear
4:15 AM 32.0 °F - 32.0 °F 100% 30.28 in 10.0 mi Calm Calm - N/A   Clear
4:35 AM 33.8 °F - 33.8 °F 100% 30.28 in 10.0 mi Calm Calm - N/A   Clear
4:55 AM 32.0 °F - 32.0 °F 100% 30.28 in 10.0 mi Calm Calm - N/A   Clear
5:15 AM 32.0 °F - 32.0 °F 100% 30.28 in 10.0 mi Calm Calm - N/A   Clear
5:35 AM 32.0 °F - 32.0 °F 100% 30.28 in 10.0 mi Calm Calm - N/A   Clear
5:55 AM 33.8 °F - 33.8 °F 100% 30.28 in 10.0 mi Calm Calm - N/A   Clear
6:15 AM 33.8 °F - 33.8 °F 100% 30.29 in 10.0 mi Calm Calm - N/A   Clear
6:35 AM 33.8 °F - 33.8 °F 100% 30.29 in 10.0 mi Calm Calm - N/A   Clear
7:15 AM 33.8 °F - 33.8 °F 100% 30.31 in 10.0 mi Calm Calm - N/A   Clear
7:35 AM 33.8 °F - 33.8 °F 100% 30.32 in 10.0 mi Calm Calm - N/A   Clear
8:15 AM 35.6 °F - 35.6 °F 100% 30.33 in 10.0 mi Calm Calm - N/A   Clear
8:35 AM 42.8 °F - 35.6 °F 76% 30.34 in 10.0 mi Calm Calm - N/A   Clear
9:15 AM 46.4 °F 45.2 °F 37.4 °F 71% 30.35 in 10.0 mi WNW 3.5 mph - N/A   Clear
9:35 AM 46.4 °F 43.5 °F 37.4 °F 71% 30.35 in 10.0 mi WNW 5.8 mph - N/A   Clear
9:55 AM 48.2 °F - 35.6 °F 62% 30.36 in 10.0 mi NNW 8.1 mph 17.3 mph N/A   Clear
10:15 AM 48.2 °F - 37.4 °F 66% 30.36 in 10.0 mi NNW 3.5 mph - N/A   Clear
10:35 AM 50.0 °F - 37.4 °F 62% 30.37 in 10.0 mi NNW 4.6 mph - N/A   Clear
10:55 AM 50.0 °F - 35.6 °F 58% 30.37 in 10.0 mi NW 9.2 mph - N/A   Clear
11:15 AM 51.8 °F - 35.6 °F 54% 30.38 in 10.0 mi NW 8.1 mph 18.4 mph N/A   Clear
11:35 AM 51.8 °F - 35.6 °F 54% 30.38 in 10.0 mi NW 9.2 mph - N/A   Clear
11:55 AM 51.8 °F - 35.6 °F 54% 30.37 in 10.0 mi NNW 4.6 mph - N/A   Clear
12:15 PM 53.6 °F - 35.6 °F 51% 30.36 in 10.0 mi North 8.1 mph - N/A   Clear
12:35 PM 53.6 °F - 35.6 °F 51% 30.35 in 10.0 mi North 9.2 mph - N/A   Clear
12:55 PM 55.4 °F - 35.6 °F 47% 30.35 in 10.0 mi NNW 10.4 mph - N/A   Clear
1:15 PM 57.2 °F - 35.6 °F 44% 30.34 in 10.0 mi North 9.2 mph - N/A   Clear
1:35 PM 59.0 °F - 33.8 °F 39% 30.33 in 10.0 mi NNW 5.8 mph - N/A   Clear
1:55 PM 57.2 °F - 32.0 °F 38% 30.33 in 10.0 mi NW 9.2 mph - N/A   Clear
2:15 PM 59.0 °F - 32.0 °F 36% 30.33 in 10.0 mi North 12.7 mph 16.1 mph N/A   Clear
2:35 PM 59.0 °F - 30.2 °F 34% 30.32 in 10.0 mi NW 4.6 mph - N/A   Clear
2:55 PM 57.2 °F - 30.2 °F 36% 30.33 in 10.0 mi NW 6.9 mph - N/A   Clear
3:15 PM 59.0 °F - 32.0 °F 36% 30.32 in 10.0 mi NW 5.8 mph - N/A   Clear
3:35 PM 59.0 °F - 30.2 °F 34% 30.32 in 10.0 mi North 6.9 mph - N/A   Clear
3:55 PM 59.0 °F - 30.2 °F 34% 30.31 in 10.0 mi North 8.1 mph - N/A   Clear
4:15 PM 59.0 °F - 30.2 °F 34% 30.32 in 10.0 mi NW 6.9 mph - N/A   Clear
4:35 PM 57.2 °F - 30.2 °F 36% 30.33 in 10.0 mi NNW 9.2 mph - N/A   Clear
5:15 PM 55.4 °F - 28.4 °F 36% 30.33 in 10.0 mi North 5.8 mph - N/A   Clear
5:35 PM 55.4 °F - 24.8 °F 31% 30.33 in 10.0 mi North 5.8 mph - N/A   Clear
6:15 PM 51.8 °F - 23.0 °F 33% 30.33 in 10.0 mi Calm Calm - N/A   Clear
6:35 PM 50.0 °F - 26.6 °F 40% 30.34 in 10.0 mi Calm Calm - N/A   Clear
6:55 PM 46.4 °F - 26.6 °F 46% 30.34 in 10.0 mi Calm Calm - N/A   Clear
7:15 PM 46.4 °F - 26.6 °F 46% 30.35 in 10.0 mi Calm Calm - N/A   Clear
7:35 PM 44.6 °F - 30.2 °F 57% 30.36 in 10.0 mi Calm Calm - N/A   Clear
7:55 PM 42.8 °F - 28.4 °F 57% 30.35 in 10.0 mi Calm Calm - N/A   Clear
8:15 PM 44.6 °F - 23.0 °F 43% 30.36 in 10.0 mi Calm Calm - N/A   Clear
8:35 PM 42.8 °F - 28.4 °F 57% 30.36 in 10.0 mi Calm Calm - N/A   Clear
8:55 PM 41.0 °F - 30.2 °F 65% 30.36 in 10.0 mi Calm Calm - N/A   Clear
9:15 PM 41.0 °F - 24.8 °F 53% 30.36 in 10.0 mi Calm Calm - N/A   Clear
9:35 PM 42.8 °F - 24.8 °F 49% 30.36 in 10.0 mi Calm Calm - N/A   Clear
9:55 PM 39.2 °F - 26.6 °F 61% 30.36 in 10.0 mi Calm Calm - N/A   Clear
10:15 PM 39.2 °F - 28.4 °F 65% 30.37 in 10.0 mi Calm Calm - N/A   Clear
10:35 PM 37.4 °F - 28.4 °F 70% 30.37 in 10.0 mi Calm Calm - N/A   Clear
10:55 PM 35.6 °F - 32.0 °F 87% 30.37 in 10.0 mi Calm Calm - N/A   Clear
11:15 PM 35.6 °F - 32.0 °F 87% 30.38 in 10.0 mi Calm Calm - N/A   Clear
11:35 PM 33.8 °F - 32.0 °F 93% 30.38 in 10.0 mi Calm Calm - N/A   Clear
11:55 PM 33.8 °F - 30.2 °F 87% 30.38 in 10.0 mi Calm Calm - N/A   Clear